Flag for U.S.A. Weather past 2 weeks in Binghamton, New York, U.S.A.

43 °F

Mostly cloudy.

Feels Like: 37 °F
Forecast: 46 / 62 °F
Wind: 9 mph from East

Location: Binghamton Regional Airport

Current Time: Oct 4, 2015 at 1:15:59 AM

Latest Report: Oct 3, 2015 at 10:48 PM

Visibility: 10 mi

Pressure: 30.35 "Hg

Humidity: 100%

Dew point: 43 °F

Location of BinghamtonLocation

Historic Weather in Binghamton — Graph


Binghamton temperature yesterday

Maximum temperature yesterday: 44 °F (at 12:53 PM)
Minimum temperature yesterday: 42 °F (at 6:53 AM)
Average temperature yesterday: 43 °F

Past Weeks' High & Low Weather Summary

High78 °F (Sep 19, 11:53 AM)100% (Sep 29, 8:53 PM)30.46 "Hg (Sep 29, 8:53 PM)
Low40 °F (Oct 2, 5:53 AM)30% (Sep 27, 3:53 PM)29.73 "Hg (Sep 30, 5:53 AM)
Average57 °F77%30.21 "Hg
* Reported Sep 18 10:53 PM — Oct 3 10:48 PM, Binghamton, Weather by CustomWeather, © 2015

Note: Actual official high and low records may vary slightly from our data, if they occured in-between our weather recording intervals... More about our weather records


Binghamton weather history for previous 24 hours

Time TempWeatherWind HumidityBarometerVisibility
10:48 PM
Sat, Oct 3
43 °FMostly cloudy.9 mph100%30.35 "Hg10 mi
9:53 PM43 °FFog.10 mph97%30.38 "Hg4 mi
8:53 PM43 °FLow clouds.7 mph100%30.39 "Hg8 mi
7:53 PM43 °FLight rain. Fog.12 mph100%30.38 "Hg3 mi
6:53 PM44 °FLight rain. Fog.12 mph96%30.38 "Hg2 mi
5:53 PM44 °FLight rain. Fog.12 mph96%30.36 "Hg2 mi
4:53 PM44 °FLight rain. Fog.10 mph96%30.34 "Hg1 mi
4:01 PM44 °FLight rain. Fog.13 mph96%30.31 "Hg2 mi
2:53 PM44 °FLight rain. Fog.10 mph96%30.34 "Hg1 mi
1:53 PM44 °FLight rain. Fog.10 mph96%30.34 "Hg1 mi
12:53 PM44 °FLight rain. Fog.9 mph93%30.34 "Hg2 mi
11:53 AM43 °FLight rain. Fog.9 mph97%30.35 "Hg1 mi
11:00 AM42 °FLight rain. Fog.9 mph96%30.32 "Hg1 mi
10:03 AM43 °FLight rain. Mostly cloudy.10 mph82%30.31 "Hg1 mi
9:53 AM43 °FMostly cloudy.10 mph79%30.34 "Hg10 mi
8:53 AM42 °FLight rain. Mostly cloudy.8 mph82%30.34 "Hg10 mi
7:53 AM43 °FOvercast.10 mph74%30.32 "Hg10 mi
6:53 AM42 °FMostly cloudy.9 mph79%30.33 "Hg10 mi
5:53 AM43 °FOvercast.9 mph71%30.32 "Hg10 mi
3:53 AM43 °FOvercast.9 mph71%30.30 "Hg10 mi
Weather by CustomWeather, © 2015

See weather overviewHow to use our weather pages